Tiempo cada hora Murtaza

Hoy, 24 Octubre, Sábado

Tiempo Temperatura Precipitaciones Viento Presión Humedad
00:00 -1°C° 0.6 mm 7 mps 735 mmHg 96%
01:00 -1°C° 0.6 mm 7 mps 734 mmHg 96%
02:00 0°C° 0.5 mm 7 mps 734 mmHg 95%
03:00 0°C° 0.5 mm 7 mps 733 mmHg 95%
04:00 0°C° 0.5 mm 8 mps 733 mmHg 95%
05:00 +2°C° 0.2 mm 7 mps 732 mmHg 95%
06:00 +3°C° 0.2 mm 7 mps 731 mmHg 95%
07:00 +3°C° 0.2 mm 6 mps 731 mmHg 96%
08:00 +3°C° 0.7 mm 6 mps 730 mmHg 96%
09:00 +4°C° 0.7 mm 6 mps 730 mmHg 96%
10:00 +4°C° 0.7 mm 6 mps 730 mmHg 96%
11:00 +5°C° 0.9 mm 6 mps 729 mmHg 95%
12:00 +7°C° 0.9 mm 6 mps 729 mmHg 94%
13:00 +8°C° 0.9 mm 6 mps 729 mmHg 93%
14:00 +8°C° 0.1 mm 6 mps 729 mmHg 93%
15:00 +8°C° 0.1 mm 5 mps 729 mmHg 93%
16:00 +8°C° 0.1 mm 5 mps 730 mmHg 93%
17:00 +8°C° 0.1 mm 5 mps 730 mmHg 92%
18:00 +7°C° 0.1 mm 4 mps 730 mmHg 92%
19:00 +7°C° 0.1 mm 4 mps 731 mmHg 91%
20:00 +7°C° 0 mm 4 mps 731 mmHg 90%
21:00 +7°C° 0 mm 4 mps 731 mmHg 89%
22:00 +7°C° 0 mm 4 mps 732 mmHg 88%
23:00 +7°C° 0 mm 4 mps 732 mmHg 87%

Mañana, 25 Octubre, Domingo

Tiempo Temperatura Precipitaciones Viento Presión Humedad
00:00 +7°C° 0 mm 4 mps 732 mmHg 85%
01:00 +7°C° 0 mm 4 mps 732 mmHg 84%
02:00 +7°C° 0 mm 4 mps 732 mmHg 83%
03:00 +7°C° 0 mm 3 mps 732 mmHg 82%
04:00 +7°C° 0 mm 3 mps 733 mmHg 82%
05:00 +7°C° 0 mm 3 mps 733 mmHg 83%
06:00 +5°C° 0 mm 3 mps 733 mmHg 85%
07:00 +5°C° 0 mm 3 mps 733 mmHg 86%
08:00 +7°C° 0 mm 3 mps 733 mmHg 82%
09:00 +8°C° 0 mm 3 mps 733 mmHg 79%
10:00 +8°C° 0 mm 3 mps 733 mmHg 75%
11:00 +9°C° 0 mm 3 mps 732 mmHg 74%
12:00 +9°C° 0 mm 3 mps 732 mmHg 73%
13:00 +9°C° 0 mm 3 mps 731 mmHg 71%
14:00 +9°C° 0.1 mm 3 mps 731 mmHg 75%
15:00 +9°C° 0.1 mm 2 mps 731 mmHg 80%
16:00 +9°C° 0.1 mm 1 mps 730 mmHg 84%
17:00 +9°C° 0.5 mm 1 mps 730 mmHg 87%
18:00 +8°C° 0.5 mm 1 mps 729 mmHg 90%
19:00 +7°C° 0.5 mm 0 mps 728 mmHg 94%
20:00 +8°C° 0.5 mm 1 mps 728 mmHg 94%
21:00 +8°C° 0.5 mm 1 mps 728 mmHg 95%
22:00 +8°C° 0.5 mm 1 mps 727 mmHg 95%
23:00 +5°C° 0.3 mm 3 mps 727 mmHg 93%

Pasado mañana, 26 Octubre, Lunes

Tiempo Temperatura Precipitaciones Viento Presión Humedad
00:00 +5°C° 0.3 mm 4 mps 727 mmHg 92%
01:00 +5°C° 0.3 mm 5 mps 727 mmHg 90%
02:00 +4°C° 0.2 mm 6 mps 728 mmHg 90%
03:00 +3°C° 0.2 mm 7 mps 729 mmHg 90%
04:00 +3°C° 0.2 mm 7 mps 729 mmHg 89%
05:00 +2°C° 0 mm 7 mps 730 mmHg 85%
06:00 0°C° 0 mm 7 mps 730 mmHg 81%
07:00 0°C° 0 mm 7 mps 731 mmHg 77%
08:00 -1°C° 0 mm 8 mps 731 mmHg 74%
09:00 -1°C° 0 mm 8 mps 732 mmHg 71%
10:00 -1°C° 0 mm 8 mps 733 mmHg 68%
11:00 -1°C° 0 mm 8 mps 733 mmHg 69%
12:00 -1°C° 0 mm 8 mps 733 mmHg 70%
13:00 -1°C° 0 mm 8 mps 734 mmHg 71%
14:00 -1°C° 0 mm 7 mps 734 mmHg 69%
15:00 -1°C° 0 mm 7 mps 734 mmHg 68%
16:00 -1°C° 0 mm 6 mps 734 mmHg 67%
17:00 -2°C° 0.1 mm 7 mps 735 mmHg 71%
18:00 -3°C° 0.1 mm 7 mps 735 mmHg 76%
19:00 -4°C° 0.1 mm 8 mps 735 mmHg 80%
20:00 -4°C° 0.1 mm 8 mps 735 mmHg 80%
21:00 -5°C° 0.1 mm 8 mps 736 mmHg 79%
22:00 -5°C° 0.1 mm 8 mps 736 mmHg 79%
23:00 -5°C° 0 mm 8 mps 736 mmHg 79%

, 27 Octubre, Martes

Tiempo Temperatura Precipitaciones Viento Presión Humedad
00:00 -5°C° 0 mm 8 mps 737 mmHg 79%
01:00 -5°C° 0 mm 8 mps 737 mmHg 78%
02:00 -6°C° 0 mm 8 mps 738 mmHg 79%
03:00 -6°C° 0 mm 8 mps 738 mmHg 79%
04:00 -6°C° 0 mm 8 mps 738 mmHg 79%
05:00 -6°C° 0 mm 8 mps 739 mmHg 80%
06:00 -6°C° 0 mm 8 mps 739 mmHg 80%
07:00 -6°C° 0 mm 8 mps 740 mmHg 81%
08:00 -6°C° 0 mm 8 mps 740 mmHg 80%
09:00 -5°C° 0 mm 8 mps 740 mmHg 78%
10:00 -5°C° 0 mm 8 mps 741 mmHg 76%
11:00 -5°C° 0 mm 8 mps 741 mmHg 76%
12:00 -3°C° 0 mm 7 mps 742 mmHg 75%
13:00 -3°C° 0 mm 7 mps 742 mmHg 74%
14:00 -3°C° 0 mm 7 mps 743 mmHg 75%
15:00 -3°C° 0 mm 7 mps 743 mmHg 75%
16:00 -3°C° 0 mm 7 mps 744 mmHg 75%
17:00 -3°C° 0 mm 6 mps 744 mmHg 76%
18:00 -4°C° 0 mm 6 mps 745 mmHg 77%
19:00 -4°C° 0 mm 5 mps 745 mmHg 78%
20:00 -4°C° 0 mm 5 mps 745 mmHg 80%
21:00 -5°C° 0 mm 5 mps 746 mmHg 83%
22:00 -4°C° 0 mm 4 mps 746 mmHg 85%
23:00 -4°C° 0 mm 4 mps 746 mmHg 86%

27 Octubre, Martes

Tiempo Temperatura Precipitaciones Viento Presión Humedad
00:00 -5°C° 0 mm 8 mps 737 mmHg 79%
01:00 -5°C° 0 mm 8 mps 737 mmHg 78%
02:00 -6°C° 0 mm 8 mps 738 mmHg 79%
03:00 -6°C° 0 mm 8 mps 738 mmHg 79%
04:00 -6°C° 0 mm 8 mps 738 mmHg 79%
05:00 -6°C° 0 mm 8 mps 739 mmHg 80%
06:00 -6°C° 0 mm 8 mps 739 mmHg 80%
07:00 -6°C° 0 mm 8 mps 740 mmHg 81%
08:00 -6°C° 0 mm 8 mps 740 mmHg 80%
09:00 -5°C° 0 mm 8 mps 740 mmHg 78%
10:00 -5°C° 0 mm 8 mps 741 mmHg 76%
11:00 -5°C° 0 mm 8 mps 741 mmHg 76%
12:00 -3°C° 0 mm 7 mps 742 mmHg 75%
13:00 -3°C° 0 mm 7 mps 742 mmHg 74%
14:00 -3°C° 0 mm 7 mps 743 mmHg 75%
15:00 -3°C° 0 mm 7 mps 743 mmHg 75%
16:00 -3°C° 0 mm 7 mps 744 mmHg 75%
17:00 -3°C° 0 mm 6 mps 744 mmHg 76%
18:00 -4°C° 0 mm 6 mps 745 mmHg 77%
19:00 -4°C° 0 mm 5 mps 745 mmHg 78%
20:00 -4°C° 0 mm 5 mps 745 mmHg 80%
21:00 -5°C° 0 mm 5 mps 746 mmHg 83%
22:00 -4°C° 0 mm 4 mps 746 mmHg 85%
23:00 -4°C° 0 mm 4 mps 746 mmHg 86%

28 Octubre, Miércoles

Tiempo Temperatura Precipitaciones Viento Presión Humedad
00:00 -4°C° 0 mm 4 mps 746 mmHg 87%
01:00 -5°C° 0 mm 4 mps 747 mmHg 87%
02:00 -5°C° 0 mm 4 mps 747 mmHg 87%
03:00 -5°C° 0 mm 4 mps 747 mmHg 87%
04:00 -5°C° 0 mm 4 mps 747 mmHg 87%
05:00 -5°C° 0 mm 3 mps 748 mmHg 87%
06:00 -5°C° 0 mm 3 mps 748 mmHg 87%
07:00 -5°C° 0 mm 3 mps 749 mmHg 87%
08:00 -4°C° 0 mm 3 mps 749 mmHg 83%
09:00 -4°C° 0 mm 3 mps 749 mmHg 78%
10:00 -2°C° 0 mm 3 mps 750 mmHg 74%
11:00 -1°C° 0 mm 3 mps 750 mmHg 70%
12:00 0°C° 0 mm 3 mps 750 mmHg 65%
13:00 +2°C° 0 mm 2 mps 750 mmHg 60%
14:00 +1°C° 0 mm 2 mps 750 mmHg 63%
15:00 +1°C° 0 mm 2 mps 750 mmHg 66%
16:00 +2°C° 0 mm 1 mps 750 mmHg 69%
17:00 +1°C° 0 mm 1 mps 750 mmHg 71%
18:00 -1°C° 0 mm 0 mps 751 mmHg 74%
19:00 -1°C° 0 mm 0 mps 751 mmHg 76%
20:00 -1°C° 0 mm 0 mps 751 mmHg 76%
21:00 -1°C° 0 mm 0 mps 751 mmHg 76%
22:00 -1°C° 0 mm 0 mps 751 mmHg 76%
23:00 -1°C° 0 mm 0 mps 751 mmHg 75%

29 Octubre, Jueves

Tiempo Temperatura Precipitaciones Viento Presión Humedad
00:00 -1°C° 0 mm 0 mps 751 mmHg 74%
01:00 -1°C° 0 mm 0 mps 752 mmHg 74%
02:00 0°C° 0 mm 1 mps 752 mmHg 74%
03:00 0°C° 0 mm 1 mps 752 mmHg 73%
04:00 0°C° 0 mm 1 mps 752 mmHg 73%
05:00 -2°C° 0 mm 2 mps 752 mmHg 73%
06:00 -2°C° 0 mm 2 mps 752 mmHg 73%
07:00 -2°C° 0 mm 2 mps 752 mmHg 72%
08:00 -1°C° 0 mm 2 mps 752 mmHg 68%
09:00 +1°C° 0 mm 2 mps 752 mmHg 64%
10:00 +1°C° 0 mm 3 mps 752 mmHg 60%
11:00 +2°C° 0 mm 3 mps 752 mmHg 59%
12:00 +2°C° 0 mm 3 mps 752 mmHg 57%
13:00 +3°C° 0 mm 3 mps 752 mmHg 55%
14:00 +3°C° 0 mm 3 mps 752 mmHg 59%
15:00 +2°C° 0 mm 3 mps 752 mmHg 63%
16:00 +3°C° 0 mm 2 mps 752 mmHg 66%
17:00 +2°C° 0 mm 2 mps 752 mmHg 69%
18:00 +1°C° 0 mm 2 mps 752 mmHg 71%
19:00 -1°C° 0 mm 2 mps 752 mmHg 74%
20:00 -1°C° 0 mm 2 mps 752 mmHg 74%
21:00 -1°C° 0 mm 2 mps 752 mmHg 74%
22:00 -1°C° 0 mm 2 mps 752 mmHg 74%
23:00 -1°C° 0 mm 2 mps 752 mmHg 73%
Mostrar más

Necesitamos Su Consentimiento

Meteoprog y nuestros Proveedores de Servicios pueden almacenar y acceder a sus datos personales como cookies, identificadores de dispositivo u otras tecnologías similares de su dispositivo y procesar dichos datos para personalizar contenido y anuncios, además de ofrecer funciones de redes sociales y analizar el tráfico.

  • Almacenar y/o acceder a información en su dispositivo

    Se puede almacenar o acceder a cookies, identificadores de dispositivo u otra información de su dispositivo para los fines anteriormente indicados.

  • Anuncios y contenido personalizados, medición de anuncios y contenido, percepciones del público, y desarrollo de productos

    Los anuncios y el contenido pueden personalizarse en base a su perfil. Se pueden añadir más datos para personalizar mejor los anuncios y contenidos. Se puede medir el rendimiento de los anuncios y contenidos. Se puede obtener la percepción sobre el público que ha visto los anuncios y contenidos. Dichos datos pueden usarse para desarrollar o mejorar la experiencia del usuario, sistemas y software.

Al hacer clic en ‘Estoy De Acuerdo’ usted permitirá el uso de las cookies, identificadores de dispositivo, balizas web u otras tecnologías similares indicadas. Su configuración puede cambiarse desde el navegador de su dispositivo.

Para ciertos fines, los intereses legítimos pueden ser considerados por encima del consentimiento. Puede leer más sobre ello en nuestra Política de Privacidad y Cookies.